OBJECT A, 65544

Orbit data source: Space-Track

You're viewing an Uncataloged Satellite

Recently launched and/or uncataloged satellites may have evolving metadata. Metadata may include but not limited to: Owner, Maufacturer, Bus, Motor, and Mission.

OBJECT A, 65544 is a satellite owned by CAST (CN) in LEO that was launched on Sat, 06 Sep 2025 UTC via a CHANG ZHENG 6A launch vehicle from the Taiyaun Space Center, China (TSC). Unknown objects in Earth's orbit typically refer to objects detected orbiting the Earth but have not yet been identified or cataloged. These objects could be anything from previously untracked satellites, spent rocket stages, debris from satellite collisions, or even natural meteoroids temporarily captured by Earth's gravity.

Loading next visibility...
Identifier
65544, 2025-199A
Orbit
LEO
Country
Flag of CNCN / PRC
Related business
None
Manufacturer
DFH
Mission
Operational spacecraft
Bus & Motor
YG40, Unknown motor
Mass
~500 kg wet, ~500 kg dry
Launch date (UTC)
2025-09-06 (2 weeks ago)
Launch vehicle
CHANG ZHENG 6A
Launch site
Taiyaun Space Center, China (TSC)
Object type
Unknown
Shape & HBR
Unknown
Radar Cross Section
Large (>1 m²)

Expand to show TLE details & history
Last TLE update: 17 hours ago

TLE from 17 hours ago
0 OBJECT A
1 65544U 25199A   25260.19150757  .00000332  00000-0  13038-3 0  9996
2 65544  85.9954 166.5439 0011819 218.5946 141.4401 14.26261645  1503
Epoch: 2025-09-17T04:35Z
TLE epoch observation values (Epoch: 2025-09-17T04:35:46.254Z)
Latitude
-0°
Longitude
101.23018°
Altitude
813.931 km
Speed
7.443 km/s
True Right ascension
11h 06m 10s
True Declination
0° 00' 00"
Sunlit
Object was in daylight at epoch
Visualization orbit readout
Latitude
Unknown
Longitude
Unknown
Altitude
Unknown
Speed
Unknown
Apparent Right ascension
Unknown
Apparent Declination
Unknown
Sunlit
N/A
Visualization observer readout
Local Sidereal Time
14:10:34
Azimuth
Unknown
Elevation
Unknown
Doppler factor
Unknown
Orbital elements
Apogee altitude
809.723 km
Perigee altitude
792.753 km
Semi-major axis
7,179.375 km
Eccentricity
0.00118
Inclination
85.9954°
RAAN
166.5439°
Arg. of periapsis
218.5946°
True anomaly
141.52442°
Mean anomaly
141.4401°
Eccentric anomaly
141.48227°
Mean motion
3.5679 °/min
Orbital period
100.9 mins
BSTAR
0.00013038
Loading maneuver chart data...
Computing Atmospheric mass density...
Loading historical data...
Loading historical data...
Loading historical data...
Loading historical data...
Loading historical data...
Loading historical data...
Loading historical data...
Other satellites on launch #199 in the year 2025 (2025-09-06 UTC)

Documentation

Showing up to 5 results
|